Year,Month,Day,Hour,Minute,Value (Times are PST for temperature in C)
2009,07,15,08,06,13.70
2009,07,15,08,07,13.80
2009,07,15,08,08,13.80
2009,07,15,08,09,13.80
2009,07,15,08,10,13.80
2009,07,15,08,11,13.80
2009,07,15,08,12,13.80
2009,07,15,08,13,13.80
2009,07,15,08,14,13.80
2009,07,15,08,15,13.80
2009,07,15,08,16,13.80
2009,07,15,08,17,13.80
2009,07,15,08,18,13.80
2009,07,15,08,19,13.80
2009,07,15,08,20,13.80
2009,07,15,08,21,13.80
2009,07,15,08,22,13.80
2009,07,15,08,23,13.80
2009,07,15,08,24,13.80
2009,07,15,08,25,13.80
2009,07,15,08,26,13.80
2009,07,15,08,27,13.80
2009,07,15,08,28,13.80
2009,07,15,08,29,13.90
2009,07,15,08,30,14.00
2009,07,15,08,31,14.10
2009,07,15,08,32,14.20
2009,07,15,08,33,14.30
2009,07,15,08,34,14.30
2009,07,15,08,35,14.40
2009,07,15,08,36,14.40
2009,07,15,08,37,14.50
2009,07,15,08,38,14.50
2009,07,15,08,39,14.60
2009,07,15,08,40,14.60
2009,07,15,08,41,14.70
2009,07,15,08,42,14.70
2009,07,15,08,43,14.70
2009,07,15,08,44,14.70
2009,07,15,08,45,14.70
2009,07,15,08,46,14.70
2009,07,15,08,47,14.70
2009,07,15,08,48,14.70
2009,07,15,08,49,14.70
2009,07,15,08,50,14.70
2009,07,15,08,51,14.80
2009,07,15,08,52,14.80
2009,07,15,08,53,14.80
2009,07,15,08,54,14.90
2009,07,15,08,55,14.90
2009,07,15,08,56,15.00
2009,07,15,08,57,15.00
2009,07,15,08,58,15.00
2009,07,15,08,59,15.00
2009,07,15,09,00,15.00
2009,07,15,09,01,15.00
2009,07,15,09,02,15.00
2009,07,15,09,03,15.00
2009,07,15,09,04,15.10
2009,07,15,09,05,15.20
2009,07,15,09,06,15.30
2009,07,15,09,07,15.40
2009,07,15,09,08,15.50
2009,07,15,09,09,15.50
2009,07,15,09,10,15.60
2009,07,15,09,11,15.70
2009,07,15,09,12,15.80
2009,07,15,09,13,15.90
2009,07,15,09,14,15.90
2009,07,15,09,15,16.00
2009,07,15,09,16,16.00
2009,07,15,09,17,16.10
2009,07,15,09,18,16.10
2009,07,15,09,19,16.10
2009,07,15,09,20,16.10
2009,07,15,09,21,16.20
2009,07,15,09,22,16.20
2009,07,15,09,23,16.30
2009,07,15,09,24,16.40
2009,07,15,09,25,16.50
2009,07,15,09,26,16.60
2009,07,15,09,27,16.70
2009,07,15,09,28,16.70
2009,07,15,09,29,16.70
2009,07,15,09,30,16.70
2009,07,15,09,31,16.80
2009,07,15,09,32,16.80
2009,07,15,09,33,16.90
2009,07,15,09,34,17.00
2009,07,15,09,35,17.10
2009,07,15,09,36,17.20
2009,07,15,09,37,17.40
2009,07,15,09,38,17.50
2009,07,15,09,39,17.50
2009,07,15,09,40,17.60
2009,07,15,09,41,17.70
2009,07,15,09,42,17.80
2009,07,15,09,43,17.80
2009,07,15,09,44,17.80
2009,07,15,09,45,17.80
2009,07,15,09,46,17.80
2009,07,15,09,47,17.90
2009,07,15,09,48,18.00
2009,07,15,09,49,18.10
2009,07,15,09,50,18.20
2009,07,15,09,51,18.30
2009,07,15,09,52,18.40
2009,07,15,09,53,18.40
2009,07,15,09,54,18.60
2009,07,15,09,55,18.70
2009,07,15,09,56,18.80
2009,07,15,09,57,18.90
2009,07,15,09,58,19.00
2009,07,15,09,59,19.20
2009,07,15,10,00,19.30
2009,07,15,10,01,19.40
2009,07,15,10,02,19.30
2009,07,15,10,03,19.30
2009,07,15,10,04,19.20
2009,07,15,10,05,19.20
2009,07,15,10,06,19.20
2009,07,15,10,07,19.30
2009,07,15,10,08,19.40
2009,07,15,10,09,19.60
2009,07,15,10,10,19.70
2009,07,15,10,11,19.90
2009,07,15,10,12,20.00
2009,07,15,10,13,20.00
2009,07,15,10,14,20.10
2009,07,15,10,15,20.10
2009,07,15,10,16,20.10
2009,07,15,10,17,20.00
2009,07,15,10,18,20.00
2009,07,15,10,19,20.00
2009,07,15,10,20,20.00
2009,07,15,10,21,19.90
2009,07,15,10,22,19.90
2009,07,15,10,23,20.00
2009,07,15,10,24,20.10
2009,07,15,10,25,20.20
2009,07,15,10,26,20.20
2009,07,15,10,27,20.40
2009,07,15,10,28,20.40
2009,07,15,10,29,20.50
2009,07,15,10,30,20.60
2009,07,15,10,31,20.60
2009,07,15,10,32,20.70
2009,07,15,10,33,20.80
2009,07,15,10,34,20.80
2009,07,15,10,35,20.90
2009,07,15,10,36,21.00
2009,07,15,10,37,21.10
2009,07,15,10,38,21.20
2009,07,15,10,39,21.30
2009,07,15,10,40,21.40
2009,07,15,10,41,21.50
2009,07,15,10,42,21.60
2009,07,15,10,43,21.70
2009,07,15,10,44,21.80
2009,07,15,10,45,21.90
2009,07,15,10,46,22.00
2009,07,15,10,47,22.10
2009,07,15,10,48,22.10
2009,07,15,10,49,22.00
2009,07,15,10,50,21.80
2009,07,15,10,51,21.60
2009,07,15,10,52,21.40
2009,07,15,10,53,21.30
2009,07,15,10,54,21.30
2009,07,15,10,55,21.30
2009,07,15,10,56,21.40
2009,07,15,10,57,21.40
2009,07,15,10,58,21.40
2009,07,15,10,59,21.30
2009,07,15,11,00,21.40
2009,07,15,11,01,21.40
2009,07,15,11,02,21.50
2009,07,15,11,03,21.60
2009,07,15,11,04,21.70
2009,07,15,11,05,21.70
2009,07,15,11,06,21.70
2009,07,15,11,07,21.70
2009,07,15,11,08,21.80
2009,07,15,11,09,21.80
2009,07,15,11,10,21.80
2009,07,15,11,11,21.70
2009,07,15,11,12,21.70
2009,07,15,11,13,21.70
2009,07,15,11,14,21.80
2009,07,15,11,15,21.80
2009,07,15,11,16,21.80
2009,07,15,11,17,21.80
2009,07,15,11,18,21.90
2009,07,15,11,19,22.10
2009,07,15,11,20,22.20
2009,07,15,11,21,22.30
2009,07,15,11,22,22.50
2009,07,15,11,23,22.50
2009,07,15,11,24,22.50
2009,07,15,11,25,22.40
2009,07,15,11,26,22.30
2009,07,15,11,27,22.30
2009,07,15,11,28,22.30
2009,07,15,11,29,22.40
2009,07,15,11,30,22.50
2009,07,15,11,31,22.70
2009,07,15,11,32,22.90
2009,07,15,11,33,23.00
2009,07,15,11,34,23.10
2009,07,15,11,35,23.10
2009,07,15,11,36,23.10
2009,07,15,11,37,23.10
2009,07,15,11,38,23.10
2009,07,15,11,39,23.20
2009,07,15,11,40,23.20
2009,07,15,11,41,23.10
2009,07,15,11,42,23.10
2009,07,15,11,43,23.00
2009,07,15,11,44,22.90
2009,07,15,11,45,22.90
2009,07,15,11,46,22.90
2009,07,15,11,47,23.00
2009,07,15,11,48,23.10
2009,07,15,11,49,23.20
2009,07,15,11,50,23.20
2009,07,15,11,51,23.20
2009,07,15,11,52,23.10
2009,07,15,11,53,23.10
2009,07,15,11,54,23.10
2009,07,15,11,55,23.10
2009,07,15,11,56,23.10
2009,07,15,11,57,23.10
2009,07,15,11,58,23.20
2009,07,15,11,59,23.20
2009,07,15,12,00,23.30
2009,07,15,12,01,23.30
2009,07,15,12,02,23.30
2009,07,15,12,03,23.30
2009,07,15,12,04,23.30
2009,07,15,12,05,23.30
2009,07,15,12,06,23.30
2009,07,15,12,07,23.30
2009,07,15,12,08,23.30
2009,07,15,12,09,23.40
2009,07,15,12,10,23.50
2009,07,15,12,11,23.50
2009,07,15,12,12,23.50
2009,07,15,12,13,23.50
2009,07,15,12,14,23.50
2009,07,15,12,15,23.60
2009,07,15,12,16,23.70
2009,07,15,12,17,23.80
2009,07,15,12,18,23.80
2009,07,15,12,19,23.90
2009,07,15,12,20,24.00
2009,07,15,12,21,24.10
2009,07,15,12,22,24.20
2009,07,15,12,23,24.20
2009,07,15,12,24,24.30
2009,07,15,12,25,24.30
2009,07,15,12,26,24.30
2009,07,15,12,27,24.20
2009,07,15,12,28,24.10
2009,07,15,12,29,24.20
2009,07,15,12,30,24.20
2009,07,15,12,31,24.20
2009,07,15,12,32,24.20
2009,07,15,12,33,24.20
2009,07,15,12,34,24.20
2009,07,15,12,35,24.20
2009,07,15,12,36,24.30
2009,07,15,12,37,24.40
2009,07,15,12,38,24.50
2009,07,15,12,39,24.50
2009,07,15,12,40,24.70
2009,07,15,12,41,24.80
2009,07,15,12,42,24.90
2009,07,15,12,43,24.90
2009,07,15,12,44,25.00
2009,07,15,12,45,25.00
2009,07,15,12,46,25.10
2009,07,15,12,47,25.20
2009,07,15,12,48,25.20
2009,07,15,12,49,25.20
2009,07,15,12,50,25.30
2009,07,15,12,51,25.30
2009,07,15,12,52,25.40
2009,07,15,12,53,25.40
2009,07,15,12,54,25.20
2009,07,15,12,55,25.10
2009,07,15,12,56,25.00
2009,07,15,12,57,24.90
2009,07,15,12,58,24.80
2009,07,15,12,59,24.80
2009,07,15,13,00,24.80
2009,07,15,13,01,24.80
2009,07,15,13,02,24.90
2009,07,15,13,03,24.90
2009,07,15,13,04,24.90
2009,07,15,13,05,24.90
2009,07,15,13,06,24.90
2009,07,15,13,07,24.80
2009,07,15,13,08,24.80
2009,07,15,13,09,24.70
2009,07,15,13,10,24.80
2009,07,15,13,11,24.80
2009,07,15,13,12,24.90
2009,07,15,13,13,25.00
2009,07,15,13,14,25.00
2009,07,15,13,15,25.10
2009,07,15,13,16,25.20
2009,07,15,13,17,25.30
2009,07,15,13,18,25.40
2009,07,15,13,19,25.60
2009,07,15,13,20,25.70
2009,07,15,13,21,25.80
2009,07,15,13,22,25.70
2009,07,15,13,23,25.60
2009,07,15,13,24,25.60
2009,07,15,13,25,25.70
2009,07,15,13,26,25.70
2009,07,15,13,27,25.80
2009,07,15,13,28,25.70
2009,07,15,13,29,25.60
2009,07,15,13,30,25.60
2009,07,15,13,31,25.60
2009,07,15,13,32,25.60
2009,07,15,13,33,25.70
2009,07,15,13,34,25.90
2009,07,15,13,35,25.90
2009,07,15,13,36,25.80
2009,07,15,13,37,25.70
2009,07,15,13,38,25.70
2009,07,15,13,39,25.80
2009,07,15,13,40,25.90
2009,07,15,13,41,26.00
2009,07,15,13,42,26.20
2009,07,15,13,43,26.20
2009,07,15,13,44,26.20
2009,07,15,13,45,26.10
2009,07,15,13,46,26.00
2009,07,15,13,47,25.90
2009,07,15,13,48,25.90
2009,07,15,13,49,25.90
2009,07,15,13,50,25.90
2009,07,15,13,51,25.90
2009,07,15,13,52,25.90
2009,07,15,13,53,26.00
2009,07,15,13,54,26.00
2009,07,15,13,55,26.00
2009,07,15,13,56,26.00
2009,07,15,13,57,26.00
2009,07,15,13,58,26.10
2009,07,15,13,59,26.10
2009,07,15,14,00,26.20
2009,07,15,14,01,26.10
2009,07,15,14,02,26.10
2009,07,15,14,03,26.00
2009,07,15,14,04,25.90
2009,07,15,14,05,25.80
2009,07,15,14,06,25.80
2009,07,15,14,07,25.80
2009,07,15,14,08,25.80
2009,07,15,14,09,25.90
2009,07,15,14,10,25.90
2009,07,15,14,11,26.00
2009,07,15,14,12,26.10
2009,07,15,14,13,26.20
2009,07,15,14,14,26.10
2009,07,15,14,15,26.10
2009,07,15,14,16,26.00
2009,07,15,14,17,25.90
2009,07,15,14,18,25.90
2009,07,15,14,19,25.80
2009,07,15,14,20,25.80
2009,07,15,14,21,25.80
2009,07,15,14,22,25.80
2009,07,15,14,23,25.90
2009,07,15,14,24,25.90
2009,07,15,14,25,25.90
2009,07,15,14,26,25.80
2009,07,15,14,27,25.80
2009,07,15,14,28,25.70
2009,07,15,14,29,25.70
2009,07,15,14,30,25.70
2009,07,15,14,31,25.80
2009,07,15,14,32,25.90
2009,07,15,14,33,25.90
2009,07,15,14,34,25.90
2009,07,15,14,35,25.90
2009,07,15,14,36,26.00
2009,07,15,14,37,26.00
2009,07,15,14,38,25.90
2009,07,15,14,39,25.90
2009,07,15,14,40,25.90
2009,07,15,14,41,25.90
2009,07,15,14,42,25.90
2009,07,15,14,43,25.90
2009,07,15,14,44,25.90
2009,07,15,14,45,25.90
2009,07,15,14,46,26.00
2009,07,15,14,47,26.00
2009,07,15,14,48,26.00
2009,07,15,14,49,26.00
2009,07,15,14,50,26.00
2009,07,15,14,51,26.00
2009,07,15,14,52,26.00
2009,07,15,14,53,25.90
2009,07,15,14,54,25.90
2009,07,15,14,55,25.90
2009,07,15,14,56,25.90
2009,07,15,14,57,25.80
2009,07,15,14,58,25.90
2009,07,15,14,59,25.90
2009,07,15,15,00,25.90
2009,07,15,15,01,25.90
2009,07,15,15,02,26.00
2009,07,15,15,03,26.10
2009,07,15,15,04,26.10
2009,07,15,15,05,25.90
2009,07,15,15,06,25.90
2009,07,15,15,07,25.90
2009,07,15,15,08,25.90
2009,07,15,15,09,25.90
2009,07,15,15,10,25.90
2009,07,15,15,11,25.80
2009,07,15,15,12,25.80
2009,07,15,15,13,25.80
2009,07,15,15,14,25.70
2009,07,15,15,15,25.70
2009,07,15,15,16,25.70
2009,07,15,15,17,25.80
2009,07,15,15,18,25.90
2009,07,15,15,19,25.90
2009,07,15,15,20,25.90
2009,07,15,15,21,25.80
2009,07,15,15,22,25.70
2009,07,15,15,23,25.70
2009,07,15,15,24,25.70
2009,07,15,15,25,25.70
2009,07,15,15,26,25.70
2009,07,15,15,27,25.70
2009,07,15,15,28,25.70
2009,07,15,15,29,25.80
2009,07,15,15,30,25.80
2009,07,15,15,31,25.90
2009,07,15,15,32,25.90
2009,07,15,15,33,26.00
2009,07,15,15,34,26.00
2009,07,15,15,35,26.10
2009,07,15,15,36,26.00
2009,07,15,15,37,26.10
2009,07,15,15,38,26.00
2009,07,15,15,39,26.00
2009,07,15,15,40,25.90
2009,07,15,15,41,25.90
2009,07,15,15,42,25.90
2009,07,15,15,43,25.90
2009,07,15,15,44,25.90
2009,07,15,15,45,26.00
2009,07,15,15,46,26.10
2009,07,15,15,47,26.30
2009,07,15,15,48,26.40
2009,07,15,15,49,26.40
2009,07,15,15,50,26.40
2009,07,15,15,51,26.30
2009,07,15,15,52,26.20
2009,07,15,15,53,26.10
2009,07,15,15,54,26.00
2009,07,15,15,55,26.00
2009,07,15,15,56,25.90
2009,07,15,15,57,25.90
2009,07,15,15,58,25.90
2009,07,15,15,59,25.90
2009,07,15,16,00,25.90
2009,07,15,16,01,25.90
2009,07,15,16,02,25.90
2009,07,15,16,03,25.90
2009,07,15,16,04,25.90
2009,07,15,16,05,26.00
2009,07,15,16,06,26.00
2009,07,15,16,07,26.00
2009,07,15,16,08,26.10
2009,07,15,16,09,26.20
2009,07,15,16,10,26.20
2009,07,15,16,11,26.30
2009,07,15,16,12,26.30
2009,07,15,16,13,26.30
2009,07,15,16,14,26.30
2009,07,15,16,15,26.20
2009,07,15,16,16,26.10
2009,07,15,16,17,26.00
2009,07,15,16,18,26.00
2009,07,15,16,19,25.90
2009,07,15,16,20,26.00
2009,07,15,16,21,26.10
2009,07,15,16,22,26.10
2009,07,15,16,23,26.20
2009,07,15,16,24,26.10
2009,07,15,16,25,26.10
2009,07,15,16,26,26.00
2009,07,15,16,27,25.90
2009,07,15,16,28,25.90
2009,07,15,16,29,25.90
2009,07,15,16,30,25.80
2009,07,15,16,31,25.80
2009,07,15,16,32,25.70
2009,07,15,16,33,25.70
2009,07,15,16,34,25.60
2009,07,15,16,35,25.60
2009,07,15,16,36,25.60
2009,07,15,16,37,25.70
2009,07,15,16,38,25.70
2009,07,15,16,39,25.70
2009,07,15,16,40,25.70
2009,07,15,16,41,25.80
2009,07,15,16,42,25.90
2009,07,15,16,43,25.90
2009,07,15,16,44,25.90
2009,07,15,16,45,25.90
2009,07,15,16,46,26.00
2009,07,15,16,47,26.00
2009,07,15,16,48,26.00
2009,07,15,16,49,26.00
2009,07,15,16,50,26.00
2009,07,15,16,51,26.10
2009,07,15,16,52,26.10
2009,07,15,16,53,26.10
2009,07,15,16,54,26.10
2009,07,15,16,55,26.10
2009,07,15,16,56,26.10
2009,07,15,16,57,26.10
2009,07,15,16,58,26.20
2009,07,15,16,59,26.30
2009,07,15,17,00,26.40
2009,07,15,17,01,26.30
2009,07,15,17,02,26.20
2009,07,15,17,03,26.20
2009,07,15,17,04,26.10
2009,07,15,17,05,26.00
2009,07,15,17,06,25.90
2009,07,15,17,07,25.90
2009,07,15,17,08,25.90
2009,07,15,17,09,25.90
2009,07,15,17,10,25.80
2009,07,15,17,11,25.80
2009,07,15,17,12,25.70
2009,07,15,17,13,25.70
2009,07,15,17,14,25.60
2009,07,15,17,15,25.60
2009,07,15,17,16,25.60
2009,07,15,17,17,25.60
2009,07,15,17,18,25.60
2009,07,15,17,19,25.50
2009,07,15,17,20,25.50
2009,07,15,17,21,25.40
2009,07,15,17,22,25.40
2009,07,15,17,23,25.30
2009,07,15,17,24,25.30
2009,07,15,17,25,25.30
2009,07,15,17,26,25.30
2009,07,15,17,27,25.30
2009,07,15,17,28,25.30
2009,07,15,17,29,25.30
2009,07,15,17,30,25.40
2009,07,15,17,31,25.40
2009,07,15,17,32,25.40
2009,07,15,17,33,25.40
2009,07,15,17,34,25.50
2009,07,15,17,35,25.60
2009,07,15,17,36,25.60
2009,07,15,17,37,25.70
2009,07,15,17,38,25.70
2009,07,15,17,39,25.70
2009,07,15,17,40,25.60
2009,07,15,17,41,25.60
2009,07,15,17,42,25.60
2009,07,15,17,43,25.60
2009,07,15,17,44,25.60
2009,07,15,17,45,25.60
2009,07,15,17,46,25.60
2009,07,15,17,47,25.50
2009,07,15,17,48,25.50
2009,07,15,17,49,25.40
2009,07,15,17,50,25.40
2009,07,15,17,51,25.40
2009,07,15,17,52,25.40
2009,07,15,17,53,25.40
2009,07,15,17,54,25.30
2009,07,15,17,55,25.30
2009,07,15,17,56,25.30
2009,07,15,17,57,25.20
2009,07,15,17,58,25.20
2009,07,15,17,59,25.20
2009,07,15,18,00,25.20
2009,07,15,18,01,25.20
2009,07,15,18,02,25.20
2009,07,15,18,03,25.20
2009,07,15,18,04,25.10
2009,07,15,18,05,25.10
2009,07,15,18,06,25.10
2009,07,15,18,07,25.20
2009,07,15,18,08,25.20
2009,07,15,18,09,25.20
2009,07,15,18,10,25.20
2009,07,15,18,11,25.20
2009,07,15,18,12,25.20
2009,07,15,18,13,25.20
2009,07,15,18,14,25.20
2009,07,15,18,15,25.30
2009,07,15,18,16,25.30
2009,07,15,18,17,25.30
2009,07,15,18,18,25.20
2009,07,15,18,19,25.20
2009,07,15,18,20,25.20
2009,07,15,18,21,25.20
2009,07,15,18,22,25.20
2009,07,15,18,23,25.20
2009,07,15,18,24,25.20
2009,07,15,18,25,25.20
2009,07,15,18,26,25.10
2009,07,15,18,27,25.10
2009,07,15,18,28,25.10
2009,07,15,18,29,25.10
2009,07,15,18,30,25.10
2009,07,15,18,31,25.10
2009,07,15,18,32,25.10
2009,07,15,18,33,25.00
2009,07,15,18,34,24.90
2009,07,15,18,35,24.90
2009,07,15,18,36,24.80
2009,07,15,18,37,24.80
2009,07,15,18,38,24.70
2009,07,15,18,39,24.70
2009,07,15,18,40,24.70
2009,07,15,18,41,24.60
2009,07,15,18,42,24.60
2009,07,15,18,43,24.60
2009,07,15,18,44,24.60
2009,07,15,18,45,24.60
2009,07,15,18,46,24.60
2009,07,15,18,47,24.60
2009,07,15,18,48,24.60
2009,07,15,18,49,24.60
2009,07,15,18,50,24.60
2009,07,15,18,51,24.60
2009,07,15,18,52,24.60
2009,07,15,18,53,24.60
2009,07,15,18,54,24.60
2009,07,15,18,55,24.60
2009,07,15,18,56,24.60
2009,07,15,18,57,24.60
2009,07,15,18,58,24.50
2009,07,15,18,59,24.50
2009,07,15,19,00,24.50
2009,07,15,19,01,24.60
2009,07,15,19,02,24.60
2009,07,15,19,03,24.60
2009,07,15,19,04,24.70
2009,07,15,19,05,24.80
2009,07,15,19,06,24.80
2009,07,15,19,07,24.90
2009,07,15,19,08,24.90
2009,07,15,19,09,24.90
2009,07,15,19,10,25.00
2009,07,15,19,11,25.00
2009,07,15,19,12,25.10
2009,07,15,19,13,25.10
2009,07,15,19,14,25.10
2009,07,15,19,15,25.10
2009,07,15,19,16,25.10
2009,07,15,19,17,25.10
2009,07,15,19,18,25.10
2009,07,15,19,19,25.10
2009,07,15,19,20,25.10
2009,07,15,19,21,25.10
2009,07,15,19,22,25.10
2009,07,15,19,23,25.10
2009,07,15,19,24,25.10
2009,07,15,19,25,25.10
2009,07,15,19,26,25.10
